TimeCDT,TemperatureF,Dew PointF,Humidity,Sea Level PressureIn,VisibilityMPH,Wind Direction,Wind SpeedMPH,Gust SpeedMPH,PrecipitationIn,Events,Conditions,WindDirDegrees,DateUTC
12:53 AM,63.0,61.0,93,30.11,10.0,SW,3.5,-,N/A,,Clear,220,2013-08-01 05:53:00
1:53 AM,63.0,61.0,93,30.11,10.0,Calm,Calm,-,N/A,,Clear,0,2013-08-01 06:53:00
2:53 AM,62.1,61.0,96,30.10,10.0,Calm,Calm,-,N/A,,Mostly Cloudy,0,2013-08-01 07:53:00
3:53 AM,63.0,61.0,93,30.09,10.0,Calm,Calm,-,N/A,,Overcast,0,2013-08-01 08:53:00
4:53 AM,61.0,59.0,93,30.09,7.0,Calm,Calm,-,N/A,,Partly Cloudy,0,2013-08-01 09:53:00
5:53 AM,61.0,60.1,97,30.08,7.0,Calm,Calm,-,N/A,,Mostly Cloudy,0,2013-08-01 10:53:00
6:53 AM,62.1,61.0,96,30.08,5.0,SE,4.6,-,N/A,,Scattered Clouds,130,2013-08-01 11:53:00
7:34 AM,62.6,60.8,94,30.09,2.0,ENE,4.6,-,N/A,,Clear,70,2013-08-01 12:34:00
7:53 AM,62.1,61.0,96,30.10,2.5,North,8.1,-,N/A,,Partly Cloudy,350,2013-08-01 12:53:00
8:00 AM,64.4,62.6,94,30.12,4.0,Calm,Calm,-,N/A,,Mostly Cloudy,0,2013-08-01 13:00:00
8:53 AM,69.1,66.0,90,30.09,8.0,SSE,3.5,-,N/A,,Mostly Cloudy,160,2013-08-01 13:53:00
9:53 AM,73.9,66.0,76,30.07,10.0,SE,5.8,-,N/A,,Clear,140,2013-08-01 14:53:00
10:53 AM,75.9,68.0,76,30.06,10.0,East,10.4,-,N/A,,Overcast,90,2013-08-01 15:53:00
11:20 AM,75.2,66.2,73,30.09,10.0,East,12.7,-,N/A,,Mostly Cloudy,100,2013-08-01 16:20:00
11:41 AM,75.2,66.2,73,30.08,10.0,ESE,10.4,20.7,N/A,,Mostly Cloudy,110,2013-08-01 16:41:00
11:53 AM,75.0,66.9,76,30.06,10.0,SE,9.2,-,N/A,,Overcast,140,2013-08-01 16:53:00
12:53 PM,81.0,70.0,69,30.03,10.0,South,15.0,-,N/A,,Clear,170,2013-08-01 17:53:00
1:53 PM,84.9,66.9,55,29.99,10.0,South,16.1,25.3,N/A,,Scattered Clouds,190,2013-08-01 18:53:00
2:53 PM,84.0,68.0,58,29.94,10.0,South,15.0,23.0,N/A,,Mostly Cloudy,180,2013-08-01 19:53:00
3:53 PM,87.1,66.0,49,29.91,10.0,South,16.1,24.2,N/A,,Scattered Clouds,180,2013-08-01 20:53:00
4:53 PM,84.9,66.0,53,29.90,10.0,South,12.7,20.7,N/A,,Scattered Clouds,180,2013-08-01 21:53:00
5:53 PM,84.9,66.9,55,29.90,10.0,SSE,9.2,-,N/A,,Mostly Cloudy,150,2013-08-01 22:53:00
6:37 PM,75.2,64.4,69,29.91,10.0,East,12.7,-,N/A,,Mostly Cloudy,100,2013-08-01 23:37:00
6:53 PM,75.9,64.0,67,29.89,10.0,East,13.8,19.6,N/A,,Mostly Cloudy,100,2013-08-01 23:53:00
7:05 PM,73.4,64.4,73,29.91,10.0,East,11.5,-,N/A,Thunderstorm,Scattered Clouds,100,2013-08-02 00:05:00
7:51 PM,71.6,66.2,83,29.96,10.0,NW,21.9,31.1,N/A,Thunderstorm,Thunderstorm,320,2013-08-02 00:51:00
7:53 PM,72.0,64.9,78,29.94,10.0,NNW,23.0,31.1,N/A,Thunderstorm,Thunderstorm,330,2013-08-02 00:53:00
7:57 PM,69.8,64.4,83,29.92,1.8,NE,17.3,31.1,0.13,Rain-Thunderstorm,Light Thunderstorms and Rain,50,2013-08-02 00:57:00
8:01 PM,68.0,66.2,94,29.93,0.8,Variable,4.6,28.8,0.21,Rain-Thunderstorm,Heavy Thunderstorms and Rain,0,2013-08-02 01:01:00
8:05 PM,68.0,66.2,94,29.93,1.0,WSW,11.5,23.0,0.21,Rain-Thunderstorm,Thunderstorms and Rain,250,2013-08-02 01:05:00
8:09 PM,71.6,66.2,83,29.93,2.5,WSW,9.2,25.3,0.21,Rain-Thunderstorm,Light Thunderstorms and Rain,250,2013-08-02 01:09:00
8:13 PM,71.6,66.2,83,29.91,8.0,East,10.4,25.3,0.21,Rain-Thunderstorm,Light Thunderstorms and Rain,80,2013-08-02 01:13:00
8:20 PM,69.8,66.2,88,29.93,10.0,NE,10.4,20.7,0.21,Thunderstorm,Thunderstorm,50,2013-08-02 01:20:00
8:53 PM,66.9,64.9,93,29.91,10.0,East,10.4,-,0.21,Thunderstorm,Scattered Clouds,100,2013-08-02 01:53:00
9:25 PM,66.2,64.4,94,29.91,10.0,East,8.1,-,0.00,,Mostly Cloudy,80,2013-08-02 02:25:00
9:37 PM,66.2,64.4,94,29.92,10.0,NE,5.8,-,0.00,Thunderstorm,Mostly Cloudy,50,2013-08-02 02:37:00
9:53 PM,66.9,64.0,90,29.88,10.0,SE,4.6,-,0.00,,Mostly Cloudy,140,2013-08-02 02:53:00
10:53 PM,68.0,66.0,93,29.86,10.0,SE,10.4,18.4,N/A,,Clear,130,2013-08-02 03:53:00
11:04 PM,68.0,66.2,94,29.89,10.0,ESE,9.2,-,N/A,,Scattered Clouds,110,2013-08-02 04:04:00
11:53 PM,66.9,64.0,90,29.88,10.0,South,5.8,-,N/A,,Partly Cloudy,180,2013-08-02 04:53:00